Regional Weather Roundup
Issued by NWS Raleigh/Durham, NC

Current Version | Previous Version | Text Only | Print | Product List | Glossary On
Versions: 1 2 3 4 5 6 7 8 9 10 11 12 13 14 15 16 17 18 19 20 21 22 23 24 25 26 27 28
000
ASUS42 KRAH 270610
RWRRAH
NORTH CAROLINA WEATHER ROUNDUP
NATIONAL WEATHER SERVICE RALEIGH NC
100 AM EST MON FEB 27 2017

NOTE: "FAIR" INDICATES FEW OR NO CLOUDS BELOW 12,000 FEET WITH NO
SIGNIFICANT WEATHER AND/OR OBSTRUCTIONS TO VISIBILITY.

NCZ001-053-055-056-065-067-270700-
WESTERN NORTH CAROLINA

CITY           SKY/WX    TMP DP  RH WIND       PRES   REMARKS
ASHEVILLE      CLEAR     31  22  69 CALM      30.25S
JEFFERSON      CLEAR     36   8  31 CALM      30.23R
MORGANTON      CLEAR     35  21  57 N5        30.32S WCI  31
HICKORY        CLEAR     34  25  69 CALM      30.27S
RUTHERFORDTON  CLEAR     36  21  55 CALM      30.28R
MOUNT AIRY     CLEAR     32  21  63 CALM      30.30R
BOONE          CLOUDY    25  17  69 CALM      30.25S
$$

NCZ021-022-025-041-071-084-088-270700-
CENTRAL NORTH CAROLINA

CITY           SKY/WX    TMP DP  RH WIND       PRES   REMARKS
CHARLOTTE      CLEAR     44  19  36 SE6       30.29R
GREENSBORO     CLEAR     38  23  55 CALM      30.28S
WINSTON-SALEM  CLEAR     38  17  42 CALM      30.29R
RALEIGH-DURHAM CLEAR     36  26  67 CALM      30.33S
FORT BRAGG     CLEAR     37  32  84 CALM      30.33S
FAYETTEVILLE     N/A    N/A N/A N/A MISG        N/A
BURLINGTON     CLEAR     31  24  75 CALM      30.29F
LAURINBURG     CLEAR     36  30  79 CALM      30.33S
$$

NCZ011-015-027-028-043-044-047-080-103-270700-
NORTHEASTERN NORTH CAROLINA

CITY           SKY/WX    TMP DP  RH WIND       PRES   REMARKS
ROCKY MT-WILSO CLEAR     33  30  88 CALM      30.34R
GREENVILLE     CLEAR     36  32  87 CALM      30.36R
WASHINGTON     PTCLDY    36  29  76 CALM      30.36R
ELIZABETH CITY PTCLDY    43  40  89 S3        30.36R
MANTEO         CLEAR     39  37  93 CALM      30.36S
CAPE HATTERAS  CLEAR     38  33  82 E3        30.36R
$$

NCZ078-087-090-091-093-098-101-270700-
SOUTHEASTERN NORTH CAROLINA

CITY           SKY/WX    TMP DP  RH WIND       PRES   REMARKS
LUMBERTON      CLEAR     37  33  85 CALM      30.33R
GOLDSBORO      CLEAR     36  28  73 CALM      30.33R
KINSTON        CLEAR     33  29  85 CALM      30.36R
KENANSVILLE    CLEAR     30  28  93 CALM      30.36R
NEW BERN       PTCLDY    35  32  88 CALM      30.37R
CHERRY POINT   NOT AVBL
BEAUFORT       CLEAR     40  34  79 CALM      30.36R
JACKSONVILLE   CLEAR     36  35  96 CALM      30.36R
WILMINGTON     CLEAR     38  35  89 CALM      30.35R
$$





USA.gov is the U.S. government's official web portal to all federal, state and local government web resources and services.